| time (UTC) | temp F | wind direction | speed MPH | gust MPH | rain 1hr in | rain 24hr in | rain mn in | humidity % | barometer mb |
| 20260902171038 | 84 | 273 | 0.0 | 2.0 | 0.00 | 0.00 | 0.00 | 66 | 1014.7 |
| 20260902170539 | 84 | 294 | 0.0 | 2.0 | 0.00 | 0.00 | 0.00 | 66 | 1014.8 |
| 20260902170039 | 84 | 304 | 1.0 | 3.0 | 0.00 | 0.00 | 0.00 | 67 | 1014.8 |
| 20260902165538 | 84 | 346 | 2.0 | 3.0 | 0.00 | 0.00 | 0.00 | 70 | 1014.7 |
| 20260902165038 | 84 | 45 | 1.0 | 5.0 | 0.00 | 0.00 | 0.00 | 70 | 1014.8 |
| 20260902164542 | 84 | 257 | 2.0 | 7.0 | 0.00 | 0.00 | 0.00 | 69 | 1014.9 |
| 20260902164038 | 84 | 327 | 1.0 | 5.0 | 0.00 | 0.00 | 0.00 | 69 | 1014.9 |
| 20260902163538 | 84 | 157 | 6.0 | 10.0 | 0.00 | 0.00 | 0.00 | 69 | 1014.9 |
| 20260902163039 | 84 | 155 | 0.0 | 8.0 | 0.00 | 0.00 | 0.00 | 69 | 1014.9 |
| 20260902162538 | 84 | 124 | 0.0 | 8.0 | 0.00 | 0.00 | 0.00 | 68 | 1014.7 |
| 20260902162038 | 84 | 277 | 1.0 | 3.0 | 0.00 | 0.00 | 0.00 | 67 | 1014.7 |
| 20260902161538 | 85 | 328 | 1.0 | 3.0 | 0.00 | 0.00 | 0.00 | 67 | 1014.7 |
| 20260902161039 | 85 | 286 | 1.0 | 4.0 | 0.00 | 0.00 | 0.00 | 67 | 1014.8 |
| 20260902160541 | 85 | 170 | 0.0 | 4.0 | 0.00 | 0.00 | 0.00 | 67 | 1014.8 |
| 20260902160041 | 85 | 267 | 1.0 | 5.0 | 0.00 | 0.00 | 0.00 | 66 | 1014.8 |
| 20260902155538 | 85 | 198 | 0.0 | 4.0 | 0.00 | 0.00 | 0.00 | 66 | 1014.8 |
| 20260902155040 | 85 | 152 | 2.0 | 6.0 | 0.00 | 0.00 | 0.00 | 65 | 1014.8 |
| 20260902154541 | 86 | 196 | 2.0 | 5.0 | 0.00 | 0.00 | 0.00 | 65 | 1014.7 |
| 20260902154038 | 86 | 227 | 0.0 | 6.0 | 0.00 | 0.00 | 0.00 | 62 | 1014.8 |
| 20260902153538 | 86 | 327 | 3.0 | 5.0 | 0.00 | 0.00 | 0.00 | 61 | 1014.8 |
| 20260902153038 | 87 | 216 | 0.0 | 4.0 | 0.00 | 0.00 | 0.00 | 61 | 1014.8 |
| 20260902152538 | 87 | 227 | 0.0 | 4.0 | 0.00 | 0.00 | 0.00 | 58 | 1014.8 |
| 20260902152038 | 87 | 264 | 1.0 | 4.0 | 0.00 | 0.00 | 0.00 | 60 | 1014.9 |
| 20260902151538 | 87 | 232 | 0.0 | 4.0 | 0.00 | 0.00 | 0.00 | 62 | 1014.9 |
| 20260902151038 | 87 | 130 | 1.0 | 4.0 | 0.00 | 0.00 | 0.00 | 61 | 1014.9 |
| 20260902150541 | 87 | 277 | 1.0 | 4.0 | 0.00 | 0.00 | 0.00 | 62 | 1015.0 |
| 20260902150038 | 87 | 247 | 1.0 | 3.0 | 0.00 | 0.00 | 0.00 | 63 | 1015.1 |
| 20260902145538 | 87 | 5 | 0.0 | 5.0 | 0.00 | 0.00 | 0.00 | 62 | 1015.1 |
| 20260902145039 | 87 | 184 | 1.0 | 7.0 | 0.00 | 0.00 | 0.00 | 62 | 1015.2 |
| 20260902144541 | 87 | 51 | 3.0 | 8.0 | 0.00 | 0.00 | 0.00 | 62 | 1015.1 |
| 20260902144038 | 87 | 15 | 2.0 | 5.0 | 0.00 | 0.00 | 0.00 | 64 | 1015.2 |
| 20260902143538 | 87 | 128 | 2.0 | 7.0 | 0.00 | 0.00 | 0.00 | 63 | 1015.2 |
| 20260902143038 | 87 | 189 | 3.0 | 7.0 | 0.00 | 0.00 | 0.00 | 62 | 1015.2 |
| 20260902142543 | 87 | 45 | 1.0 | 5.0 | 0.00 | 0.00 | 0.00 | 62 | 1015.2 |
| 20260902142038 | 87 | 46 | 2.0 | 7.0 | 0.00 | 0.00 | 0.00 | 60 | 1015.3 |
| 20260902141538 | 87 | 355 | 0.0 | 7.0 | 0.00 | 0.00 | 0.00 | 61 | 1015.3 |
| 20260902141038 | 87 | 286 | 3.0 | 9.0 | 0.00 | 0.00 | 0.00 | 60 | 1015.3 |
| 20260902140538 | 87 | 144 | 1.0 | 5.0 | 0.00 | 0.00 | 0.00 | 60 | 1015.3 |
| 20260902140038 | 87 | 355 | 4.0 | 7.0 | 0.00 | 0.00 | 0.00 | 59 | 1015.3 |
| 20260902135538 | 87 | 340 | 3.0 | 8.0 | 0.00 | 0.00 | 0.00 | 57 | 1015.4 |
| 20260902135038 | 87 | 282 | 7.0 | 7.0 | 0.00 | 0.00 | 0.00 | 57 | 1015.4 |
| 20260902134538 | 87 | 299 | 1.0 | 9.0 | 0.00 | 0.00 | 0.00 | 57 | 1015.4 |
| 20260902134038 | 87 | 54 | 2.0 | 8.0 | 0.00 | 0.00 | 0.00 | 55 | 1015.4 |
| 20260902133538 | 88 | 134 | 3.0 | 6.0 | 0.00 | 0.00 | 0.00 | 55 | 1015.5 |
| 20260902133038 | 88 | 52 | 4.0 | 6.0 | 0.00 | 0.00 | 0.00 | 53 | 1015.5 |
| 20260902132538 | 88 | 171 | 4.0 | 7.0 | 0.00 | 0.00 | 0.00 | 53 | 1015.5 |
| 20260902132041 | 88 | 158 | 2.0 | 5.0 | 0.00 | 0.00 | 0.00 | 51 | 1015.6 |
| 20260902131538 | 88 | 155 | 2.0 | 12.0 | 0.00 | 0.00 | 0.00 | 49 | 1015.7 |
| 20260902131038 | 88 | 67 | 3.0 | 8.0 | 0.00 | 0.00 | 0.00 | 50 | 1015.7 |
| 20260902130538 | 88 | 22 | 3.0 | 8.0 | 0.00 | 0.00 | 0.00 | 48 | 1015.7 |
| 20260902130038 | 88 | 128 | 2.0 | 8.0 | 0.00 | 0.00 | 0.00 | 48 | 1015.7 |
| 20260902125538 | 89 | 86 | 2.0 | 7.0 | 0.00 | 0.00 | 0.00 | 46 | 1015.9 |
| 20260902125038 | 89 | 307 | 0.0 | 10.0 | 0.00 | 0.00 | 0.00 | 45 | 1015.9 |
| 20260902124538 | 89 | 290 | 2.0 | 17.0 | 0.00 | 0.00 | 0.00 | 45 | 1015.8 |
| 20260902124038 | 89 | 236 | 11.0 | 17.0 | 0.00 | 0.00 | 0.00 | 43 | 1015.9 |
| 20260902123538 | 89 | 170 | 0.0 | 4.0 | 0.00 | 0.00 | 0.00 | 42 | 1016.0 |
| 20260902123038 | 89 | 192 | 0.0 | 10.0 | 0.00 | 0.00 | 0.00 | 41 | 1016.0 |
| 20260902122539 | 90 | 186 | 2.0 | 6.0 | 0.00 | 0.00 | 0.00 | 40 | 1016.0 |
| 20260902122038 | 89 | 234 | 2.0 | 4.0 | 0.00 | 0.00 | 0.00 | 41 | 1016.0 |
| 20260902121538 | 89 | 93 | 3.0 | 6.0 | 0.00 | 0.00 | 0.00 | 40 | 1016.0 |
| 20260902121038 | 89 | 67 | 2.0 | 10.0 | 0.00 | 0.00 | 0.00 | 41 | 1016.1 |
| 20260902120538 | 89 | 96 | 0.0 | 12.0 | 0.00 | 0.00 | 0.00 | 41 | 1016.0 |
| 20260902120038 | 89 | 309 | 4.0 | 9.0 | 0.00 | 0.00 | 0.00 | 39 | 1016.1 |
| 20260902115538 | 89 | 46 | 2.0 | 10.0 | 0.00 | 0.00 | 0.00 | 38 | 1016.1 |
| 20260902115038 | 90 | 199 | 3.0 | 9.0 | 0.00 | 0.00 | 0.00 | 37 | 1016.1 |
| 20260902114538 | 90 | 306 | 0.0 | 6.0 | 0.00 | 0.00 | 0.00 | 40 | 1016.0 |
| 20260902114038 | 89 | 157 | 2.0 | 5.0 | 0.00 | 0.00 | 0.00 | 40 | 1016.1 |
| 20260902113541 | 89 | 195 | 1.0 | 10.0 | 0.00 | 0.00 | 0.00 | 39 | 1016.1 |
| 20260902113038 | 89 | 225 | 5.0 | 9.0 | 0.00 | 0.00 | 0.00 | 41 | 1016.2 |
| 20260902112538 | 90 | 276 | 2.0 | 8.0 | 0.00 | 0.00 | 0.00 | 41 | 1016.2 |
| 20260902112038 | 90 | 5 | 0.0 | 5.0 | 0.00 | 0.00 | 0.00 | 41 | 1016.2 |
| 20260902111541 | 89 | 350 | 0.0 | 8.0 | 0.00 | 0.00 | 0.00 | 41 | 1016.3 |
| 20260902111038 | 89 | 209 | 2.0 | 7.0 | 0.00 | 0.00 | 0.00 | 42 | 1016.3 |
| 20260902110538 | 89 | 202 | 2.0 | 6.0 | 0.00 | 0.00 | 0.00 | 42 | 1016.3 |
| 20260902110038 | 89 | 199 | 1.0 | 9.0 | 0.00 | 0.00 | 0.00 | 42 | 1016.3 |
| 20260902105538 | 89 | 301 | 1.0 | 9.0 | 0.00 | 0.00 | 0.00 | 42 | 1016.3 |
| 20260902105038 | 89 | 240 | 1.0 | 8.0 | 0.00 | 0.00 | 0.00 | 44 | 1016.3 |
| 20260902104538 | 88 | 222 | 8.0 | 7.0 | 0.00 | 0.00 | 0.00 | 45 | 1016.4 |
| 20260902104041 | 89 | 190 | 2.0 | 7.0 | 0.00 | 0.00 | 0.00 | 45 | 1016.4 |
| 20260902103538 | 89 | 216 | 4.0 | 6.0 | 0.00 | 0.00 | 0.00 | 46 | 1016.4 |
| 20260902103041 | 89 | 89 | 0.0 | 8.0 | 0.00 | 0.00 | 0.00 | 47 | 1016.4 |
| 20260902102538 | 89 | 279 | 0.0 | 10.0 | 0.00 | 0.00 | 0.00 | 46 | 1016.5 |
| 20260902102038 | 89 | 205 | 2.0 | 6.0 | 0.00 | 0.00 | 0.00 | 46 | 1016.5 |
| 20260902101541 | 89 | 321 | 0.0 | 10.0 | 0.00 | 0.00 | 0.00 | 47 | 1016.5 |
| 20260902101038 | 89 | 188 | 1.0 | 8.0 | 0.00 | 0.00 | 0.00 | 46 | 1016.5 |
| 20260902100539 | 90 | 189 | 2.0 | 8.0 | 0.00 | 0.00 | 0.00 | 46 | 1016.5 |
| 20260902100039 | 89 | 188 | 1.0 | 11.0 | 0.00 | 0.00 | 0.00 | 46 | 1016.5 |
| 20260902095541 | 90 | 155 | 1.0 | 7.0 | 0.00 | 0.00 | 0.00 | 45 | 1016.4 |
| 20260902095038 | 90 | 210 | 3.0 | 8.0 | 0.00 | 0.00 | 0.00 | 43 | 1016.5 |
| 20260902094538 | 90 | 209 | 0.0 | 5.0 | 0.00 | 0.00 | 0.00 | 44 | 1016.4 |
| 20260902094038 | 90 | 169 | 2.0 | 4.0 | 0.00 | 0.00 | 0.00 | 44 | 1016.5 |
| 20260902093538 | 91 | 250 | 1.0 | 7.0 | 0.00 | 0.00 | 0.00 | 43 | 1016.5 |
| 20260902093038 | 91 | 202 | 0.0 | 6.0 | 0.00 | 0.00 | 0.00 | 42 | 1016.4 |
| 20260902092538 | 91 | 223 | 1.0 | 5.0 | 0.00 | 0.00 | 0.00 | 41 | 1016.4 |
| 20260902092038 | 92 | 188 | 0.0 | 5.0 | 0.00 | 0.00 | 0.00 | 40 | 1016.4 |
| 20260902091541 | 92 | 164 | 2.0 | 4.0 | 0.00 | 0.00 | 0.00 | 39 | 1016.4 |
| 20260902091041 | 92 | 281 | 0.0 | 2.0 | 0.00 | 0.00 | 0.00 | 32 | 1016.4 |
| 20260902090538 | 92 | 298 | 2.0 | 3.0 | 0.00 | 0.00 | 0.00 | 31 | 1016.3 |
| 20260902090038 | 92 | 157 | 1.0 | 5.0 | 0.00 | 0.00 | 0.00 | 33 | 1016.3 |
| 20260902085538 | 91 | 294 | 1.0 | 2.0 | 0.00 | 0.00 | 0.00 | 34 | 1016.3 |
| 20260902085038 | 91 | 296 | 0.0 | 3.0 | 0.00 | 0.00 | 0.00 | 35 | 1016.2 |
| 20260902084538 | 90 | 287 | 1.0 | 2.0 | 0.00 | 0.00 | 0.00 | 36 | 1016.3 |
| 20260902084038 | 90 | 342 | 0.0 | 2.0 | 0.00 | 0.00 | 0.00 | 37 | 1016.2 |
| 20260902083538 | 89 | 243 | 0.0 | 3.0 | 0.00 | 0.00 | 0.00 | 38 | 1016.3 |
| 20260902083038 | 89 | 148 | 1.0 | 3.0 | 0.00 | 0.00 | 0.00 | 37 | 1016.2 |
| 20260902082538 | 88 | 19 | 1.0 | 3.0 | 0.00 | 0.00 | 0.00 | 39 | 1016.2 |
| 20260902082038 | 88 | 304 | 1.0 | 4.0 | 0.00 | 0.00 | 0.00 | 39 | 1016.2 |
| 20260902081538 | 87 | 94 | 1.0 | 4.0 | 0.00 | 0.00 | 0.00 | 40 | 1016.1 |
| 20260902081038 | 87 | 96 | 3.0 | 4.0 | 0.00 | 0.00 | 0.00 | 39 | 1016.1 |
| 20260902080538 | 86 | 59 | 0.0 | 2.0 | 0.00 | 0.00 | 0.00 | 41 | 1016.1 |
| 20260902080041 | 87 | 66 | 0.0 | 3.0 | 0.00 | 0.00 | 0.00 | 41 | 1016.1 |
| 20260902075538 | 86 | 155 | 2.0 | 3.0 | 0.00 | 0.00 | 0.00 | 42 | 1016.0 |
| 20260902075038 | 85 | 29 | 1.0 | 4.0 | 0.00 | 0.00 | 0.00 | 43 | 1016.0 |
| 20260902074538 | 85 | 53 | 1.0 | 2.0 | 0.00 | 0.00 | 0.00 | 46 | 1015.9 |
| 20260902074041 | 84 | 45 | 0.0 | 3.0 | 0.00 | 0.00 | 0.00 | 47 | 1016.0 |
| 20260902073541 | 83 | 51 | 0.0 | 3.0 | 0.00 | 0.00 | 0.00 | 48 | 1015.9 |
| 20260902073038 | 82 | 51 | 3.0 | 5.0 | 0.00 | 0.00 | 0.00 | 49 | 1015.9 |
| 20260902072538 | 82 | 11 | 3.0 | 5.0 | 0.00 | 0.00 | 0.00 | 50 | 1015.9 |
| 20260902072038 | 81 | 5 | 2.0 | 3.0 | 0.00 | 0.00 | 0.00 | 51 | 1015.9 |
| 20260902071541 | 80 | 15 | 1.0 | 4.0 | 0.00 | 0.00 | 0.00 | 52 | 1015.9 |
| 20260902071038 | 80 | 336 | 2.0 | 3.0 | 0.00 | 0.00 | 0.00 | 53 | 1015.9 |
| 20260902070538 | 79 | 331 | 2.0 | 3.0 | 0.00 | 0.00 | 0.00 | 53 | 1015.8 |
| 20260902070041 | 78 | 0 | 1.0 | 5.0 | 0.00 | 0.00 | 0.00 | 54 | 1015.9 |
| 20260902065539 | 78 | 325 | 3.0 | 6.0 | 0.00 | 0.00 | 0.00 | 55 | 1015.8 |
| 20260902065038 | 78 | 320 | 5.0 | 8.0 | 0.00 | 0.00 | 0.00 | 56 | 1015.9 |
| 20260902064538 | 78 | 331 | 5.0 | 8.0 | 0.00 | 0.00 | 0.00 | 55 | 1015.8 |
| 20260902064038 | 77 | 310 | 3.0 | 8.0 | 0.00 | 0.00 | 0.00 | 55 | 1015.8 |
| 20260902063538 | 77 | 341 | 3.0 | 8.0 | 0.00 | 0.00 | 0.00 | 56 | 1015.8 |
| 20260902063038 | 78 | 319 | 3.0 | 8.0 | 0.00 | 0.00 | 0.00 | 56 | 1015.8 |
| 20260902062538 | 77 | 313 | 6.0 | 9.0 | 0.00 | 0.00 | 0.00 | 55 | 1015.7 |
| 20260902062038 | 78 | 320 | 3.0 | 8.0 | 0.00 | 0.00 | 0.00 | 56 | 1015.7 |
| 20260902061539 | 77 | 309 | 2.0 | 9.0 | 0.00 | 0.00 | 0.00 | 56 | 1015.7 |
| 20260902061038 | 77 | 331 | 9.0 | 8.0 | 0.00 | 0.00 | 0.00 | 56 | 1015.6 |
| 20260902060539 | 77 | 324 | 3.0 | 8.0 | 0.00 | 0.00 | 0.00 | 58 | 1015.6 |
| 20260902060038 | 76 | 313 | 4.0 | 9.0 | 0.00 | 0.00 | 0.00 | 58 | 1015.5 |
| 20260902055538 | 76 | 350 | 4.0 | 10.0 | 0.00 | 0.00 | 0.00 | 58 | 1015.4 |
| 20260902055038 | 76 | 304 | 4.0 | 9.0 | 0.00 | 0.00 | 0.00 | 58 | 1015.5 |
| 20260902054538 | 76 | 0 | 8.0 | 9.0 | 0.00 | 0.00 | 0.00 | 58 | 1015.4 |
| 20260902054038 | 75 | 324 | 3.0 | 9.0 | 0.00 | 0.00 | 0.00 | 59 | 1015.4 |
| 20260902053541 | 75 | 347 | 3.0 | 9.0 | 0.00 | 0.00 | 0.00 | 60 | 1015.4 |
| 20260902053038 | 75 | 322 | 5.0 | 10.0 | 0.00 | 0.00 | 0.00 | 60 | 1015.4 |
| 20260902052540 | 74 | 341 | 5.0 | 10.0 | 0.00 | 0.00 | 0.00 | 61 | 1015.5 |
| 20260902052038 | 75 | 355 | 9.0 | 11.0 | 0.00 | 0.00 | 0.00 | 61 | 1015.5 |
| 20260902051538 | 75 | 323 | 6.0 | 10.0 | 0.00 | 0.00 | 0.00 | 60 | 1015.5 |
| 20260902051038 | 75 | 315 | 6.0 | 11.0 | 0.00 | 0.00 | 0.00 | 59 | 1015.4 |
| 20260902050538 | 75 | 310 | 7.0 | 12.0 | 0.00 | 0.00 | 0.00 | 59 | 1015.4 |
| 20260902050038 | 75 | 331 | 8.0 | 11.0 | 0.00 | 0.00 | 0.00 | 59 | 1015.4 |
| 20260902045538 | 75 | 320 | 8.0 | 9.0 | 0.00 | 0.00 | 0.00 | 59 | 1015.4 |
| 20260902045038 | 75 | 342 | 10.0 | 10.0 | 0.00 | 0.00 | 0.00 | 59 | 1015.4 |
| 20260902044541 | 75 | 346 | 4.0 | 8.0 | 0.00 | 0.00 | 0.00 | 60 | 1015.3 |
| 20260902044039 | 75 | 344 | 6.0 | 8.0 | 0.00 | 0.00 | 0.00 | 60 | 1015.3 |
| 20260902043538 | 75 | 23 | 3.0 | 8.0 | 0.00 | 0.00 | 0.00 | 61 | 1015.4 |
| 20260902043041 | 75 | 344 | 3.0 | 10.0 | 0.00 | 0.00 | 0.00 | 62 | 1015.5 |
| 20260902042541 | 75 | 315 | 6.0 | 8.0 | 0.00 | 0.00 | 0.00 | 63 | 1015.6 |
| 20260902042038 | 75 | 341 | 6.0 | 9.0 | 0.00 | 0.00 | 0.00 | 64 | 1015.5 |
| 20260902041539 | 75 | 311 | 5.0 | 9.0 | 0.00 | 0.00 | 0.00 | 65 | 1015.4 |
| 20260902041041 | 75 | 332 | 3.0 | 8.0 | 0.00 | 0.00 | 0.00 | 68 | 1015.4 |
| 20260902040541 | 75 | 311 | 3.0 | 8.0 | 0.00 | 0.00 | 0.00 | 69 | 1015.4 |
| 20260902040038 | 74 | 324 | 3.0 | 8.0 | 0.00 | 0.00 | 0.00 | 71 | 1015.4 |
| 20260902035538 | 74 | 317 | 3.0 | 9.0 | 0.00 | 0.00 | 0.00 | 70 | 1015.3 |
| 20260902035038 | 74 | 321 | 3.0 | 8.0 | 0.00 | 0.00 | 0.00 | 70 | 1015.3 |
| 20260902034538 | 74 | 339 | 5.0 | 8.0 | 0.00 | 0.00 | 0.00 | 71 | 1015.3 |
| 20260902034038 | 74 | 330 | 1.0 | 8.0 | 0.00 | 0.00 | 0.00 | 71 | 1015.4 |
| 20260902033538 | 75 | 309 | 4.0 | 6.0 | 0.00 | 0.00 | 0.00 | 71 | 1015.4 |
| 20260902033038 | 75 | 313 | 3.0 | 8.0 | 0.00 | 0.00 | 0.00 | 70 | 1015.4 |
| 20260902032538 | 75 | 319 | 2.0 | 4.0 | 0.00 | 0.00 | 0.00 | 71 | 1015.4 |
| 20260902032038 | 75 | 305 | 2.0 | 5.0 | 0.00 | 0.00 | 0.00 | 71 | 1015.5 |
| 20260902031538 | 75 | 338 | 2.0 | 8.0 | 0.00 | 0.00 | 0.00 | 72 | 1015.5 |
| 20260902031041 | 75 | 300 | 2.0 | 5.0 | 0.00 | 0.00 | 0.00 | 71 | 1015.4 |
| 20260902030538 | 75 | 310 | 1.0 | 5.0 | 0.00 | 0.00 | 0.00 | 71 | 1015.4 |
| 20260902030038 | 75 | 334 | 2.0 | 6.0 | 0.00 | 0.00 | 0.00 | 72 | 1015.4 |
| 20260902025538 | 75 | 299 | 2.0 | 8.0 | 0.00 | 0.00 | 0.00 | 72 | 1015.3 |
| 20260902025038 | 75 | 321 | 3.0 | 10.0 | 0.00 | 0.00 | 0.00 | 72 | 1015.2 |
| 20260902024539 | 75 | 302 | 5.0 | 6.0 | 0.00 | 0.00 | 0.00 | 73 | 1015.2 |
| 20260902024038 | 75 | 315 | 1.0 | 6.0 | 0.00 | 0.00 | 0.00 | 72 | 1015.2 |
| 20260902023538 | 75 | 311 | 1.0 | 9.0 | 0.00 | 0.00 | 0.00 | 71 | 1015.2 |
| 20260902023038 | 75 | 306 | 5.0 | 8.0 | 0.00 | 0.00 | 0.00 | 72 | 1015.2 |
| 20260902022541 | 75 | 320 | 5.0 | 7.0 | 0.00 | 0.00 | 0.00 | 71 | 1015.2 |
| 20260902022038 | 75 | 305 | 2.0 | 8.0 | 0.00 | 0.00 | 0.00 | 70 | 1015.2 |
| 20260902021539 | 75 | 307 | 3.0 | 10.0 | 0.00 | 0.00 | 0.00 | 69 | 1015.1 |
| 20260902021039 | 76 | 314 | 8.0 | 10.0 | 0.00 | 0.00 | 0.00 | 68 | 1015.1 |
| 20260902020538 | 76 | 319 | 1.0 | 6.0 | 0.00 | 0.00 | 0.00 | 67 | 1015.1 |
| 20260902020038 | 76 | 304 | 2.0 | 4.0 | 0.00 | 0.00 | 0.00 | 66 | 1015.1 |
| 20260902015538 | 76 | 0 | 1.0 | 6.0 | 0.00 | 0.00 | 0.00 | 66 | 1015.1 |
| 20260902015038 | 76 | 330 | 1.0 | 11.0 | 0.00 | 0.00 | 0.00 | 67 | 1015.1 |
| 20260902014538 | 76 | 311 | 8.0 | 11.0 | 0.00 | 0.00 | 0.00 | 67 | 1015.1 |
| 20260902014038 | 76 | 291 | 3.0 | 8.0 | 0.00 | 0.00 | 0.00 | 69 | 1015.1 |
| 20260902013538 | 76 | 309 | 0.0 | 7.0 | 0.00 | 0.00 | 0.00 | 69 | 1015.2 |
| 20260902013038 | 76 | 316 | 4.0 | 9.0 | 0.00 | 0.00 | 0.00 | 70 | 1015.2 |
| 20260902012538 | 76 | 313 | 1.0 | 4.0 | 0.00 | 0.00 | 0.00 | 70 | 1015.2 |
| 20260902012038 | 76 | 294 | 0.0 | 4.0 | 0.00 | 0.00 | 0.00 | 70 | 1015.2 |
| 20260902011541 | 76 | 325 | 2.0 | 4.0 | 0.00 | 0.00 | 0.00 | 70 | 1015.2 |
| 20260902011038 | 76 | 300 | 0.0 | 3.0 | 0.00 | 0.00 | 0.00 | 71 | 1015.2 |
| 20260902010538 | 76 | 331 | 1.0 | 5.0 | 0.00 | 0.00 | 0.00 | 71 | 1015.2 |
| 20260902010038 | 76 | 306 | 0.0 | 4.0 | 0.00 | 0.00 | 0.00 | 72 | 1015.2 |
| 20260902005538 | 76 | 304 | 0.0 | 2.0 | 0.00 | 0.00 | 0.00 | 73 | 1015.3 |
| 20260902005041 | 76 | 286 | 1.0 | 5.0 | 0.00 | 0.00 | 0.00 | 73 | 1015.3 |
| 20260902004538 | 76 | 315 | 3.0 | 5.0 | 0.00 | 0.00 | 0.00 | 73 | 1015.2 |
| 20260902004038 | 77 | 315 | 0.0 | 4.0 | 0.00 | 0.00 | 0.00 | 73 | 1015.3 |
| 20260902003538 | 77 | 325 | 4.0 | 5.0 | 0.00 | 0.00 | 0.00 | 73 | 1015.3 |
| 20260902003041 | 77 | 303 | 2.0 | 3.0 | 0.00 | 0.00 | 0.00 | 73 | 1015.4 |
| 20260902002538 | 77 | 290 | 0.0 | 3.0 | 0.00 | 0.00 | 0.00 | 73 | 1015.4 |
| 20260902002038 | 77 | 302 | 0.0 | 5.0 | 0.00 | 0.00 | 0.00 | 73 | 1015.3 |
| 20260902001538 | 77 | 302 | 1.0 | 6.0 | 0.00 | 0.00 | 0.00 | 73 | 1015.3 |
| 20260902001041 | 78 | 304 | 0.0 | 2.0 | 0.00 | 0.00 | 0.00 | 73 | 1015.4 |
| 20260902000541 | 78 | 246 | 0.0 | 4.0 | 0.00 | 0.00 | 0.00 | 73 | 1015.4 |
| 20260902000038 | 78 | 317 | 3.0 | 5.0 | 0.00 | 0.00 | 0.00 | 72 | 1015.4 |
| 20260901235538 | 79 | 311 | 2.0 | 9.0 | 0.00 | 0.00 | 0.00 | 73 | 1015.4 |
| 20260901235038 | 79 | 300 | 4.0 | 9.0 | 0.00 | 0.00 | 0.00 | 73 | 1015.4 |
| 20260901234538 | 79 | 306 | 1.0 | 9.0 | 0.00 | 0.00 | 0.00 | 74 | 1015.4 |
| 20260901234038 | 79 | 265 | 3.0 | 5.0 | 0.00 | 0.00 | 0.00 | 73 | 1015.5 |
| 20260901233538 | 79 | 323 | 1.0 | 4.0 | 0.00 | 0.00 | 0.00 | 73 | 1015.5 |
| 20260901233038 | 79 | 315 | 0.0 | 4.0 | 0.00 | 0.00 | 0.00 | 73 | 1015.5 |
| 20260901232538 | 79 | 316 | 1.0 | 8.0 | 0.00 | 0.00 | 0.00 | 73 | 1015.5 |
| 20260901232038 | 79 | 320 | 0.0 | 5.0 | 0.00 | 0.00 | 0.00 | 73 | 1015.6 |
| 20260901231538 | 79 | 268 | 1.0 | 4.0 | 0.00 | 0.00 | 0.00 | 73 | 1015.6 |
| 20260901231038 | 79 | 184 | 0.0 | 5.0 | 0.00 | 0.00 | 0.00 | 73 | 1015.6 |
| 20260901230538 | 79 | 319 | 0.0 | 4.0 | 0.00 | 0.00 | 0.00 | 74 | 1015.6 |
| 20260901230038 | 79 | 319 | 0.0 | 5.0 | 0.00 | 0.00 | 0.00 | 74 | 1015.5 |
| 20260901225538 | 79 | 302 | 0.0 | 5.0 | 0.00 | 0.00 | 0.00 | 75 | 1015.6 |
| 20260901225038 | 79 | 284 | 1.0 | 6.0 | 0.00 | 0.00 | 0.00 | 75 | 1015.7 |
| 20260901224538 | 79 | 254 | 1.0 | 7.0 | 0.00 | 0.00 | 0.00 | 74 | 1015.7 |
| 20260901224038 | 79 | 166 | 3.0 | 6.0 | 0.00 | 0.00 | 0.00 | 74 | 1015.6 |
| 20260901223538 | 79 | 247 | 5.0 | 3.0 | 0.00 | 0.00 | 0.00 | 75 | 1015.5 |
| 20260901223038 | 80 | 319 | 0.0 | 3.0 | 0.00 | 0.00 | 0.00 | 75 | 1015.5 |
| 20260901222538 | 80 | 140 | 0.0 | 6.0 | 0.00 | 0.00 | 0.00 | 73 | 1015.8 |
| 20260901222038 | 80 | 185 | 2.0 | 6.0 | 0.00 | 0.00 | 0.00 | 70 | 1015.7 |
| 20260901221538 | 80 | 285 | 0.0 | 2.0 | 0.00 | 0.00 | 0.00 | 70 | 1015.5 |
| 20260901221041 | 80 | 321 | 0.0 | 5.0 | 0.00 | 0.00 | 0.00 | 70 | 1015.5 |
| 20260901220538 | 80 | 321 | 0.0 | 2.0 | 0.00 | 0.00 | 0.00 | 70 | 1015.4 |
| 20260901220041 | 80 | 317 | 1.0 | 2.0 | 0.00 | 0.00 | 0.00 | 71 | 1015.4 |
| 20260901215538 | 80 | 316 | 0.0 | 3.0 | 0.00 | 0.00 | 0.00 | 71 | 1015.4 |
| 20260901215038 | 80 | 317 | 0.0 | 4.0 | 0.00 | 0.00 | 0.00 | 71 | 1015.4 |
| 20260901214541 | 80 | 319 | 0.0 | 2.0 | 0.00 | 0.00 | 0.00 | 72 | 1015.5 |
| 20260901214041 | 80 | 316 | 0.0 | 3.0 | 0.00 | 0.00 | 0.00 | 72 | 1015.6 |
| 20260901213541 | 80 | 315 | 0.0 | 3.0 | 0.00 | 0.00 | 0.00 | 72 | 1015.5 |
| 20260901213041 | 80 | 315 | 0.0 | 3.0 | 0.00 | 0.00 | 0.00 | 72 | 1015.5 |
| 20260901212538 | 80 | 315 | 1.0 | 2.0 | 0.00 | 0.00 | 0.00 | 73 | 1015.6 |
| 20260901212041 | 80 | 304 | 1.0 | 2.0 | 0.00 | 0.00 | 0.00 | 73 | 1015.6 |
| 20260901211538 | 80 | 295 | 0.0 | 3.0 | 0.00 | 0.00 | 0.00 | 73 | 1015.6 |
| 20260901211038 | 80 | 323 | 1.0 | 2.0 | 0.00 | 0.00 | 0.00 | 73 | 1015.6 |
| 20260901210538 | 80 | 325 | 0.0 | 2.0 | 0.00 | 0.00 | 0.00 | 73 | 1015.5 |
| 20260901210038 | 80 | 324 | 0.0 | 1.0 | 0.00 | 0.00 | 0.00 | 73 | 1015.5 |
| 20260901205541 | 80 | 324 | 0.0 | 1.0 | 0.00 | 0.00 | 0.00 | 73 | 1015.5 |
| 20260901205041 | 80 | 324 | 0.0 | 1.0 | 0.00 | 0.00 | 0.00 | 73 | 1015.6 |
| 20260901204538 | 80 | 324 | 0.0 | 2.0 | 0.00 | 0.00 | 0.00 | 73 | 1015.6 |
| 20260901204038 | 80 | 324 | 0.0 | 1.0 | 0.00 | 0.00 | 0.00 | 73 | 1015.5 |
| 20260901203538 | 80 | 324 | 0.0 | 1.0 | 0.00 | 0.00 | 0.00 | 73 | 1015.5 |
| 20260901203038 | 80 | 324 | 0.0 | 1.0 | 0.00 | 0.00 | 0.00 | 73 | 1015.5 |
| 20260901202538 | 80 | 324 | 0.0 | 1.0 | 0.00 | 0.00 | 0.00 | 73 | 1015.6 |
| 20260901202038 | 80 | 324 | 0.0 | 0.0 | 0.00 | 0.00 | 0.00 | 73 | 1015.6 |
| 20260901201538 | 80 | 324 | 0.0 | 0.0 | 0.00 | 0.00 | 0.00 | 73 | 1015.5 |
| 20260901201038 | 80 | 324 | 0.0 | 0.0 | 0.00 | 0.00 | 0.00 | 73 | 1015.5 |
| 20260901200538 | 80 | 324 | 0.0 | 0.0 | 0.00 | 0.00 | 0.00 | 73 | 1015.4 |
| 20260901200038 | 80 | 324 | 0.0 | 0.0 | 0.00 | 0.00 | 0.00 | 73 | 1015.4 |
| 20260901195538 | 80 | 324 | 0.0 | 0.0 | 0.00 | 0.00 | 0.00 | 73 | 1015.5 |
| 20260901195041 | 80 | 324 | 0.0 | 0.0 | 0.00 | 0.00 | 0.00 | 72 | 1015.5 |
| 20260901194538 | 81 | 324 | 0.0 | 0.0 | 0.00 | 0.00 | 0.00 | 72 | 1015.5 |
| 20260901194038 | 81 | 324 | 0.0 | 1.0 | 0.00 | 0.00 | 0.00 | 72 | 1015.4 |
| 20260901193538 | 81 | 324 | 0.0 | 1.0 | 0.00 | 0.00 | 0.00 | 71 | 1015.3 |
| 20260901193038 | 81 | 324 | 0.0 | 3.0 | 0.00 | 0.00 | 0.00 | 71 | 1015.3 |
| 20260901192541 | 81 | 323 | 0.0 | 2.0 | 0.00 | 0.00 | 0.00 | 71 | 1015.2 |
| 20260901192038 | 81 | 319 | 0.0 | 4.0 | 0.00 | 0.00 | 0.00 | 72 | 1015.2 |
| 20260901191538 | 81 | 319 | 5.0 | 5.0 | 0.00 | 0.00 | 0.00 | 72 | 1015.2 |
| 20260901191041 | 82 | 313 | 0.0 | 3.0 | 0.00 | 0.00 | 0.00 | 71 | 1015.2 |
| 20260901190538 | 82 | 290 | 1.0 | 1.0 | 0.00 | 0.00 | 0.00 | 72 | 1015.2 |
| 20260901190038 | 82 | 298 | 0.0 | 6.0 | 0.00 | 0.00 | 0.00 | 72 | 1015.2 |
| 20260901185541 | 82 | 294 | 1.0 | 3.0 | 0.00 | 0.00 | 0.00 | 72 | 1015.2 |
| 20260901185038 | 82 | 315 | 0.0 | 3.0 | 0.00 | 0.00 | 0.00 | 71 | 1015.2 |
| 20260901184538 | 82 | 321 | 1.0 | 5.0 | 0.00 | 0.00 | 0.00 | 71 | 1015.1 |
| 20260901184041 | 82 | 294 | 0.0 | 4.0 | 0.00 | 0.00 | 0.00 | 70 | 1015.1 |
| 20260901183538 | 82 | 200 | 1.0 | 5.0 | 0.00 | 0.00 | 0.00 | 70 | 1015.2 |
| 20260901183041 | 82 | 216 | 2.0 | 4.0 | 0.00 | 0.00 | 0.00 | 69 | 1015.0 |
| 20260901182538 | 83 | 276 | 3.0 | 3.0 | 0.00 | 0.00 | 0.00 | 69 | 1015.0 |
| 20260901182038 | 83 | 289 | 0.0 | 2.0 | 0.00 | 0.00 | 0.00 | 68 | 1014.9 |
| 20260901181541 | 83 | 323 | 1.0 | 3.0 | 0.00 | 0.00 | 0.00 | 68 | 1014.9 |
| 20260901181038 | 83 | 298 | 1.0 | 3.0 | 0.00 | 0.00 | 0.00 | 68 | 1014.8 |
| 20260901180538 | 83 | 290 | 0.0 | 3.0 | 0.00 | 0.00 | 0.00 | 68 | 1014.9 |
| 20260901180039 | 83 | 293 | 2.0 | 4.0 | 0.00 | 0.00 | 0.00 | 68 | 1014.8 |
| 20260901175538 | 84 | 339 | 1.0 | 5.0 | 0.00 | 0.00 | 0.00 | 67 | 1014.8 |
| 20260901175038 | 84 | 230 | 1.0 | 4.0 | 0.00 | 0.00 | 0.00 | 66 | 1014.8 |
| 20260901174538 | 84 | 296 | 1.0 | 7.0 | 0.00 | 0.00 | 0.00 | 65 | 1014.8 |
| 20260901174039 | 84 | 202 | 2.0 | 6.0 | 0.00 | 0.00 | 0.00 | 63 | 1014.9 |
| 20260901173538 | 85 | 342 | 2.0 | 6.0 | 0.00 | 0.00 | 0.00 | 61 | 1014.9 |
| 20260901173038 | 85 | 232 | 3.0 | 4.0 | 0.00 | 0.00 | 0.00 | 61 | 1014.9 |
| 20260901172538 | 85 | 308 | 1.0 | 2.0 | 0.00 | 0.00 | 0.00 | 60 | 1014.9 |
| 20260901172038 | 85 | 297 | 1.0 | 2.0 | 0.00 | 0.00 | 0.00 | 60 | 1014.8 |
| 20260901171538 | 85 | 298 | 1.0 | 5.0 | 0.00 | 0.00 | 0.00 | 60 | 1014.8 |